This is the latest recevied weather packets stored in our database for station/object WA9SDJ-13. If no packets are shown the sender has not sent any weather packets the latest 1 day(s).
| Time | Temp. | Humidity | Pressure | Rain* | Wind** | Luminosity | Snow |
|---|---|---|---|---|---|---|---|
| 1777971722 | 13.33° C | 87% | 1005.7 hPa | 1.27 mm | 0.89 m/s, 154° | 0 W/m² | - |
| 1777971663 | 13.33° C | 87% | 1005.7 hPa | 1.52 mm | 0.89 m/s, 157° | 0 W/m² | - |
| 1777971602 | 13.33° C | 87% | 1005.7 hPa | 1.52 mm | 0.89 m/s, 157° | 0 W/m² | - |
| 1777971542 | 13.33° C | 87% | 1005.7 hPa | 1.78 mm | 0.89 m/s, 161° | 0 W/m² | - |
| 1777971482 | 13.33° C | 87% | 1005.7 hPa | 1.78 mm | 0.89 m/s, 176° | 0 W/m² | - |
| 1777971422 | 13.33° C | 87% | 1005.7 hPa | 1.78 mm | 0.89 m/s, 175° | 0 W/m² | - |
| 1777971362 | 13.33° C | 87% | 1005.8 hPa | 2.03 mm | 0.89 m/s, 210° | 0 W/m² | - |
| 1777971302 | 13.33° C | 87% | 1005.8 hPa | 1.78 mm | 0.45 m/s, 210° | 0 W/m² | - |
| 1777971242 | 13.33° C | 87% | 1005.9 hPa | 1.78 mm | 0.45 m/s, 210° | 0 W/m² | - |
| 1777971182 | 13.33° C | 87% | 1005.9 hPa | 2.03 mm | 0.45 m/s, 221° | 0 W/m² | - |
| 1777971122 | 13.33° C | 87% | 1005.9 hPa | 2.03 mm | 0 m/s | 0 W/m² | - |
| 1777971062 | 13.33° C | 87% | 1006 hPa | 2.29 mm | 0 m/s | 0 W/m² | - |
| 1777971002 | 13.33° C | 87% | 1006 hPa | 2.29 mm | 0.45 m/s, 221° | 0 W/m² | - |
| 1777970943 | 13.33° C | 87% | 1006 hPa | 2.29 mm | 0.89 m/s, 221° | 0 W/m² | - |
| 1777970882 | 13.33° C | 87% | 1006 hPa | 2.54 mm | 0.89 m/s, 221° | 0 W/m² | - |
| 1777970821 | 13.33° C | 87% | 1006.1 hPa | 2.54 mm | 0.45 m/s, 238° | 0 W/m² | - |
| 1777970762 | 13.33° C | 87% | 1006.1 hPa | 2.79 mm | 0.45 m/s, 238° | 0 W/m² | - |
| 1777970702 | 13.33° C | 87% | 1006 hPa | 2.79 mm | 0.45 m/s, 238° | 0 W/m² | - |
| 1777970642 | 13.33° C | 87% | 1006.1 hPa | 2.79 mm | 0.45 m/s, 238° | 0 W/m² | - |
| 1777970582 | 13.33° C | 87% | 1006.2 hPa | 3.05 mm | 0.89 m/s, 238° | 0 W/m² | - |
| 1777970522 | 13.33° C | 87% | 1006.1 hPa | 3.05 mm | 0.89 m/s, 238° | 0 W/m² | - |
| 1777970462 | 13.33° C | 87% | 1006.1 hPa | 3.05 mm | 0.89 m/s, 244° | 0 W/m² | - |
| 1777970403 | 13.33° C | 87% | 1006.1 hPa | 3.05 mm | 0.89 m/s, 204° | 0 W/m² | - |
| 1777970342 | 13.33° C | 87% | 1006.1 hPa | 3.3 mm | 0.89 m/s, 204° | 0 W/m² | - |
| 1777970282 | 13.33° C | 87% | 1005.9 hPa | 3.3 mm | 0.45 m/s, 204° | 0 W/m² | - |
* Rain latest hour (hover to see other rain measurements)
** Current wind speed in m/s (hover to see current wind gust speed)